Location: Ferintosh
(52.7647°N, 112.9692°W)
Time: 17:52:37
(UTC+00:00)

Explorer 7 - Pass Details

Date: 28 May 2024
Orbit: 466 x 622 km, 50.3° (Epoch: 15 June)

Event Time Altitude Azimuth Distance (km) Brightness Sun altitude
Rises 08:55:01 0° 278° (W) 2,588 10.1 -13.4°
Reaches altitude 10° 08:57:17 10° 269° (W) 1,727 9.1 -13.2°
Maximum altitude 09:00:50 34° 204° (SSW) 887 7.3 -13.0°
Drops below altitude 10° 09:04:33 10° 139° (SE) 1,809 9.2 -12.8°
Sets 09:06:59 0° 130° (SE) 2,731 10.2 -12.7°
